Lincoln, NE

5:00 PM CST on November 20, 2019 (GMT -0600)
Lincoln Municipal

Weather History for KLNK - August, 2019

Change the Weather History Date:

Monday, August 26, 2019

  Actual Average Record
Temperature  
Mean Temperature 72 °F 74 °F  
Max Temperature 83 °F 85 °F 105 °F (1926)
Min Temperature 61 °F 62 °F 48 °F (1988)
Degree Days  
Heating Degree Days 0 0  
Month to date heating degree days 0 0  
Since 1 June heating degree days 6 17  
Since 1 July heating degree days 0 1  
Cooling Degree Days 7 9  
Month to date cooling degree days 279 283  
Year to date cooling degree days 1025 994  
Since 1 June cooling degree days 953 915  
Growing Degree Days 23 (Base 50)    
Moisture  
Dew Point 64 °F    
Average Humidity 71    
Maximum Humidity 87    
Minimum Humidity 54    
Precipitation  
Precipitation 0.30 in 0.12 in 1.72 in (1996)
Month to date precipitation 2.45 2.91  
Year to date precipitation 24.32 21.00  
Snow  
Snow 0.00 in 0.00 in 0.00 in (2006)
Month to date snowfall 0.0 0.0  
Since 1 June snowfall 0.0 0.0  
Since 1 July snowfall 0.0 0.0  
Snow Depth 0.00 in    
Sea Level Pressure  
Sea Level Pressure 29.80 in    
Wind  
Wind Speed 8 mph (NNE)    
Max Wind Speed 20 mph    
Max Gust Speed 23 mph    
Visibility 9 miles    
Events Rain , Thunderstorm    
T = Trace of Precipitation, MM = Missing Value Source: NWS Daily Summary

Daily Weather History Graph

Daily Weather History Graph

Search for Another Location

Airport or City:

Astronomy

Aug. 26, 2019 Rise Set
Actual Time 6:47 AM CDT 8:09 PM CDT
Civil Twilight 6:19 AM CDT 8:37 PM CDT
Nautical Twilight 5:44 AM CDT 9:11 PM CDT
Astronomical Twilight 5:08 AM CDT 9:47 PM CDT
Moon 2:12 AM CDT (8/26) 5:35 PM CDT (8/26)
Length of Visible Light 14h 18m
Length of Day
13h 21m
Waning Crescent, 19% of the Moon is Illuminated
Aug 26
Waning Crescent
Aug 30
New
Sep 5
First Quarter
Sep 13
Full
Sep 21
Last Quarter

Hourly Weather History & Observations

Time (CDT) Temp. Heat Index Dew Point Humidity Pressure Visibility Wind Dir Wind Speed Gust Speed Precip Events Conditions
12:54 AM 66.9 °F - 63.0 °F 87% 29.80 in 10.0 mi SE 11.5 mph - N/A   Overcast
1:54 AM 66.9 °F - 63.0 °F 87% 29.80 in 10.0 mi SSE 10.4 mph - N/A   Overcast
2:54 AM 66.0 °F - 63.0 °F 90% 29.74 in 10.0 mi SSE 12.7 mph - N/A   Overcast
3:54 AM 66.9 °F - 63.0 °F 87% 29.81 in 10.0 mi WSW 3.5 mph - N/A   Overcast
4:54 AM 66.9 °F - 63.0 °F 87% 29.79 in 10.0 mi ESE 5.8 mph - N/A   Overcast
5:54 AM 66.0 °F - 63.0 °F 90% 29.74 in 10.0 mi SE 6.9 mph - 0.00 in Rain Light Rain
6:54 AM 66.0 °F - 63.0 °F 90% 29.74 in 10.0 mi South 10.4 mph - 0.01 in Rain Light Rain
7:18 AM 66.0 °F - 63.0 °F 90% 29.78 in 5.0 mi SE 9.2 mph - 0.05 in Rain , Thunderstorm Rain
7:33 AM 66.0 °F - 63.0 °F 90% 29.75 in 8.0 mi ENE 12.7 mph - 0.07 in Rain Light Rain
7:44 AM 64.9 °F - 63.0 °F 93% 29.76 in 10.0 mi Variable 6.9 mph - 0.08 in Rain Light Rain
7:54 AM 66.0 °F - 63.0 °F 90% 29.82 in 9.0 mi West 10.4 mph - 0.08 in Rain , Thunderstorm Light Rain
8:02 AM 66.0 °F - 64.0 °F 93% 29.84 in 4.0 mi WSW 9.2 mph - 0.02 in Rain , Thunderstorm Heavy Thunderstorms and Rain
8:10 AM 66.0 °F - 63.0 °F 90% 29.77 in 2.0 mi NE 10.4 mph - 0.10 in Rain , Thunderstorm Heavy Thunderstorms and Rain
8:15 AM 64.9 °F - 63.0 °F 93% 29.80 in 3.0 mi Variable 3.5 mph - 0.14 in Rain , Thunderstorm Heavy Rain
8:27 AM 64.9 °F - 63.0 °F 93% 29.79 in 6.0 mi NE 8.1 mph - 0.17 in Rain , Thunderstorm Thunderstorms and Rain
8:54 AM 64.9 °F - 63.0 °F 93% 29.75 in 10.0 mi East 11.5 mph - 0.20 in Rain , Thunderstorm Light Thunderstorms and Rain
9:04 AM 64.9 °F - 63.0 °F 93% 29.77 in 10.0 mi East 12.7 mph - 0.01 in Rain Light Rain
9:54 AM 66.0 °F - 63.0 °F 90% 29.75 in 10.0 mi ESE 4.6 mph - 0.01 in   Overcast
10:54 AM 68.0 °F - 64.0 °F 87% 29.75 in 10.0 mi SSE 8.1 mph - N/A   Overcast
11:54 AM 69.1 °F - 64.0 °F 84% 29.78 in 10.0 mi North 3.5 mph - N/A   Overcast
12:23 PM 71.1 °F - 64.9 °F 81% 29.81 in 10.0 mi NW 5.8 mph - N/A   Overcast
12:54 PM 72.0 °F - 66.0 °F 81% 29.78 in 10.0 mi Calm Calm - N/A   Overcast
1:04 PM 73.9 °F - 66.0 °F 76% 29.80 in 10.0 mi Calm Calm - N/A   Overcast
1:13 PM 73.0 °F - 66.0 °F 79% 29.81 in 10.0 mi Calm Calm - N/A   Overcast
1:54 PM 75.9 °F - 66.9 °F 74% 29.78 in 10.0 mi Calm Calm - N/A   Overcast
2:28 PM 75.9 °F - 68.0 °F 76% 29.81 in 10.0 mi North 6.9 mph - N/A   Overcast
2:54 PM 77.0 °F - 66.9 °F 71% 29.78 in 10.0 mi NNW 9.2 mph - N/A   Overcast
3:09 PM 78.1 °F - 66.9 °F 68% 29.80 in 10.0 mi NNW 9.2 mph - N/A   Overcast
3:54 PM 82.0 °F 84.5 °F 66.9 °F 60% 29.77 in 9.0 mi NNW 11.5 mph 19.6 mph N/A   Partly Cloudy
4:54 PM 81.0 °F 82.7 °F 64.9 °F 58% 29.78 in 10.0 mi North 13.8 mph - N/A   Mostly Cloudy
5:54 PM 80.1 °F 81.5 °F 63.0 °F 56% 29.80 in 10.0 mi North 16.1 mph - N/A   Scattered Clouds
6:54 PM 79.0 °F - 62.1 °F 56% 29.82 in 10.0 mi North 11.5 mph - N/A   Clear
7:54 PM 75.0 °F - 63.0 °F 66% 29.83 in 10.0 mi NNW 8.1 mph - N/A   Clear
8:54 PM 72.0 °F - 63.0 °F 73% 29.87 in 10.0 mi NW 4.6 mph - N/A   Clear
9:54 PM 70.0 °F - 61.0 °F 73% 29.90 in 10.0 mi WNW 8.1 mph - N/A   Clear
10:54 PM 68.0 °F - 57.9 °F 70% 29.91 in 10.0 mi NNW 9.2 mph - N/A   Clear
11:54 PM 66.0 °F - 55.0 °F 68% 29.92 in 10.0 mi NW 9.2 mph - N/A   Clear